Dewpoint
49 39 39 31 20 22 23 25 28 33 43 49 50 48 48 49 48 45 47 55 61 64 65 63 65 67 67 67 67 67 67 68 68 67 66 66 66 66 65 65 63 63 64 65 66 66 66 63 66
39 35 29 25 13 12 20 25 31 33 42 44 42 43 41 40 39 41 50 57 62 63 66 62 65 65 66 66 66 66 67 67 67 67 66 66 66 66 66 66 65 63 63 64 64 65 64 66 66
34 28 26 22 17 12 19 26 29 31 36 45 39 37 37 38 40 46 49 57 61 62 65 67 66 66 66 66 66 65 66 66 66 66 66 67 66 66 66 67 67 66 64 64 64 66 66 66 66
29 28 26 16 19 23 22 24 25 26 32 37 36 34 36 47 46 44 48 54 59 59 62 66 67 67 67 67 66 66 66 65 65 65 65 66 66 66 66 67 68 68 67 67 66 67 65 67 66
26 25 17 21 22 22 23 24 24 24 29 31 34 32 35 47 44 44 44 47 51 54 57 60 63 65 65 67 67 67 66 66 66 66 65 65 65 65 66 66 66 67 67 66 66 67 66 66 65
23 23 12 13 20 23 24 25 24 23 24 24 32 33 34 41 43 44 44 45 46 48 49 51 53 57 60 63 64 65 67 67 67 67 67 66 66 65 66 66 66 67 66 67 66 66 66 66 65
23 19 19 20 20 20 22 26 22 23 22 23 31 27 33 41 44 43 44 43 44 44 45 46 48 49 52 55 59 60 62 64 66 65 65 66 66 66 66 66 67 66 66 65 65 65 66 66 66
24 21 19 20 18 19 24 24 22 21 21 24 31 24 27 38 43 42 42 44 43 43 44 46 46 48 48 50 54 55 56 57 59 61 63 64 64 65 65 66 66 66 66 65 64 64 64 64 64
27 18 17 19 18 23 22 22 23 24 21 20 26 30 33 42 42 39 39 41 41 43 45 46 47 47 49 48 51 52 53 53 54 56 58 62 62 63 63 64 65 66 66 65 63 64 64 64 64
25 17 18 21 23 22 22 19 22 22 19 20 24 32 40 42 40 37 36 39 42 43 44 46 45 45 46 46 50 52 52 52 51 52 55 61 61 61 62 64 64 65 65 66 64 64 64 63 63
25 19 23 25 26 25 24 24 27 24 19 21 21 29 39 40 40 37 37 39 42 44 45 45 45 45 44 44 46 48 50 51 52 52 55 58 58 59 60 62 63 64 63 64 64 64 62 61 61
20 24 24 28 27 26 22 26 21 23 21 27 27 29 38 38 40 39 38 40 42 43 44 45 45 44 44 43 43 43 46 49 50 52 53 55 57 57 57 58 59 62 63 63 64 64 63 62 60
21 24 26 27 28 27 28 25 23 23 25 26 27 32 34 37 40 40 42 42 42 42 44 43 44 44 44 43 43 43 43 45 46 47 49 52 54 55 56 56 56 58 61 62 63 62 61 62 61
25 26 27 28 25 26 23 22 23 22 26 26 28 29 31 36 40 41 42 42 42 43 43 43 42 42 43 42 42 43 43 44 43 43 46 47 50 52 53 54 55 56 60 58 58 57 58 57 58
25 21 25 21 23 22 22 14 21 22 25 26 26 29 33 40 40 41 43 43 43 43 42 41 40 41 40 42 41 42 43 42 41 42 44 45 45 46 49 52 53 55 57 59 59 59 58 57 57
14 14 12 16 21 22 20 13 20 24 24 22 26 30 36 40 41 43 44 44 43 42 41 41 40 39 38 39 40 42 42 41 40 40 40 42 43 45 46 48 50 51 55 57 59 59 58 57 56
14 9 12 14 21 21 18 16 20 27 28 26 24 33 38 41 42 43 43 42 41 40 40 40 39 38 37 36 37 39 40 39 37 37 38 39 41 43 45 46 47 49 52 55 56 56 58 57 56
13 13 14 15 18 21 20 19 21 30 30 29 29 35 38 41 42 42 41 39 37 38 40 40 37 35 34 33 33 34 36 37 35 35 35 38 39 41 44 46 47 48 49 52 54 55 56 56 57
19 17 15 16 20 21 21 20 25 31 31 32 34 37 40 41 41 41 40 38 36 35 33 32 32 32 33 32 30 29 32 32 34 34 35 33 36 40 41 43 45 46 47 49 51 53 54 54 56
18 15 16 19 21 22 21 21 27 31 33 33 35 38 40 40 39 39 37 37 38 35 32 31 30 29 29 30 29 31 30 29 33 29 31 33 33 36 39 40 42 45 46 47 49 50 52 53 55
14 16 17 20 22 22 22 20 24 31 34 36 38 39 40 39 38 37 36 35 34 34 35 35 36 33 29 28 29 29 27 26 24 26 28 31 32 34 36 38 40 41 44 45 46 49 51 51 53
17 19 23 23 21 16 22 14 20 28 31 34 37 38 38 37 35 35 36 35 35 35 36 36 32 31 28 27 25 25 24 23 24 25 27 27 30 32 34 36 38 39 41 43 44 46 48 51 51
19 24 23 23 22 22 20 19 19 26 26 31 35 36 37 35 33 33 32 33 35 37 38 33 26 25 26 26 25 24 24 23 23 23 23 24 26 30 30 34 35 37 40 40 42 44 45 48 51
25 21 23 24 22 20 20 16 8 20 23 27 34 36 35 31 32 32 32 34 35 35 28 25 22 22 23 23 24 24 24 24 22 22 22 23 24 26 29 30 32 36 37 38 40 41 42 45 48
23 20 19 15 19 9 19 17 14 21 24 25 30 35 33 30 30 30 33 34 31 25 22 21 20 20 21 21 22 22 23 23 22 22 21 22 22 24 26 28 29 33 36 36 37 41 41 43 44
20 18 15 9 12 10 16 14 16 26 31 33 30 34 30 32 32 32 28 24 20 20 19 18 18 18 18 19 21 21 21 21 21 22 22 22 23 25 27 27 26 29 33 35 35 38 41 41 44
20 19 20 17 18 16 14 15 22 28 30 31 31 29 30 27 24 22 21 20 17 16 16 17 17 17 17 19 19 19 19 20 21 22 22 23 24 24 25 27 26 27 32 34 34 35 39 42 43
21 22 18 18 14 8 9 12 10 21 23 28 26 26 24 24 22 21 19 17 16 16 16 16 17 17 18 18 18 18 19 20 21 22 22 23 24 24 25 25 25 27 30 32 33 34 36 40 41
22 21 20 18 17 13 8 7 21 22 23 24 26 24 22 19 18 18 17 16 15 15 15 16 16 17 17 18 18 19 19 21 21 22 22 23 23 24 24 24 25 26 29 31 31 31 34 36 38
22 19 19 21 18 19 20 15 23 24 25 25 25 22 18 16 18 17 15 14 14 14 15 15 16 17 17 18 18 19 20 20 20 21 22 23 23 23 23 24 24 25 27 28 29 30 33 34 36
Wind_Speed
3 1 1 2 3 3 4 3 1 3 3 4 4 3 4 7 5 3 5 10 15 14 12 8 2 4 3 2 2 3 4 5 5 6 6 6 6 5 5 5 6 5 4 3 4 7 7 6 10
2 2 2 1 2 3 4 3 4 3 3 3 2 2 3 3 4 3 4 18 14 14 13 6 4 3 5 4 3 2 4 4 6 6 7 7 7 6 6 6 5 5 5 5 4 4 6 8 10
0 3 2 2 2 1 4 5 5 5 1 1 1 2 1 2 4 3 9 10 9 11 14 14 7 7 6 5 4 3 3 4 4 5 6 7 7 7 7 5 4 5 5 6 5 2 6 8 10
1 2 2 1 6 4 5 6 3 5 3 2 2 2 4 4 2 6 8 9 9 11 12 16 17 16 15 9 7 7 5 5 4 3 5 6 7 7 6 6 4 4 5 6 7 5 8 8 10
2 0 2 4 4 4 4 3 1 2 2 1 2 1 3 4 6 8 11 13 13 13 14 13 17 15 18 20 15 10 9 6 5 6 5 5 5 7 8 7 6 5 6 8 10 8 10 11 11
1 1 3 5 4 4 3 3 1 1 2 2 1 2 3 4 3 7 10 13 14 15 15 15 16 17 16 15 16 17 14 11 13 11 8 5 4 4 5 6 6 7 7 7 8 9 11 12 13
3 2 3 5 7 4 3 1 0 0 1 1 1 2 2 6 7 7 9 10 12 13 15 16 15 14 14 17 15 14 14 14 12 13 15 13 7 6 6 6 7 8 8 7 5 7 10 12 14
3 3 5 2 6 3 2 2 1 2 0 2 2 1 2 7 8 7 8 10 13 15 15 15 14 14 13 13 17 15 14 14 13 15 13 12 8 4 4 6 9 9 9 8 6 8 7 8 10
1 2 5 5 6 5 3 3 1 1 3 2 1 2 2 12 9 6 5 9 10 12 15 14 15 14 13 12 12 11 12 10 7 7 7 8 8 8 9 6 8 9 9 11 10 10 10 8 5
3 2 4 3 3 4 3 2 0 3 4 6 5 3 8 11 8 5 4 7 9 11 12 12 12 13 11 10 11 11 12 12 12 12 10 7 8 10 11 9 8 9 9 10 14 15 14 11 9
4 4 6 4 2 1 2 2 2 4 5 3 3 5 10 9 6 5 6 8 8 8 10 11 12 12 12 11 10 9 9 10 11 15 15 11 10 9 10 10 9 8 7 7 13 15 15 16 14
6 5 3 4 2 0 1 2 3 4 4 5 6 3 9 8 5 5 6 6 7 10 11 13 13 12 12 10 11 10 10 10 10 11 14 11 10 11 10 8 9 8 9 9 9 13 16 17 17
9 5 4 3 2 1 2 3 4 4 10 4 1 7 8 7 7 7 7 7 8 11 11 13 14 14 13 12 11 11 11 10 10 11 13 13 11 10 10 9 10 10 10 9 6 2 2 13 15
5 6 5 2 2 2 4 3 4 6 12 3 3 4 4 6 8 8 6 7 9 9 10 10 12 13 12 11 12 10 11 12 11 11 13 13 12 12 11 10 10 10 10 4 6 6 8 8 7
4 4 4 5 5 1 3 2 5 11 10 4 3 4 6 7 8 7 7 9 8 9 10 12 12 13 13 11 12 10 11 11 12 12 13 15 13 13 13 11 11 10 9 1 0 1 0 4 4
2 1 1 3 7 2 5 2 4 13 12 7 3 5 8 9 9 9 9 9 9 9 11 12 13 14 14 13 12 9 10 10 11 12 13 17 15 15 13 12 11 13 10 6 5 8 6 7 8
6 1 4 3 5 5 5 5 4 14 11 7 2 4 9 11 10 10 10 10 11 11 11 13 14 16 15 13 11 10 11 10 11 11 13 16 15 16 14 11 12 13 11 10 9 7 5 8 10
4 3 4 6 7 9 9 4 11 12 9 6 4 7 9 10 10 9 10 10 11 11 11 11 12 15 14 12 10 10 9 10 10 11 13 15 14 15 14 12 13 13 11 10 9 9 9 8 7
3 3 5 7 3 13 4 8 5 9 10 8 8 9 10 9 7 8 8 8 9 12 13 13 14 16 15 14 13 10 12 11 10 12 13 14 14 14 14 12 13 12 12 12 12 10 10 11 5
2 3 5 7 3 11 5 10 3 9 9 8 8 9 9 8 7 6 8 8 9 10 12 14 16 14 13 13 13 8 12 11 10 12 13 13 14 14 13 12 12 12 12 11 11 12 10 7 7
1 5 9 8 13 2 14 3 2 5 7 8 9 8 7 6 6 5 5 6 6 9 11 11 9 9 11 13 12 12 9 12 9 14 13 14 14 14 13 13 11 12 12 11 11 11 12 10 7
1 2 6 11 7 4 5 5 2 2 3 4 6 6 7 7 6 4 4 6 7 8 10 9 8 9 8 11 10 13 12 16 15 14 14 16 15 14 13 13 12 12 11 12 11 10 11 11 11
2 7 5 2 2 4 0 3 3 3 2 5 6 6 5 5 3 4 6 6 7 9 9 7 7 9 11 11 12 12 12 14 15 16 19 18 14 13 13 13 13 13 12 12 13 14 13 12 12
7 2 1 1 1 3 2 6 4 2 1 3 8 8 6 4 2 4 4 5 8 9 9 11 11 12 14 15 14 15 16 17 17 17 18 16 16 15 14 14 14 14 13 13 13 13 14 14 15
6 5 4 2 2 4 2 6 7 1 2 6 8 10 6 3 1 3 8 9 9 10 12 14 15 15 15 17 17 17 18 18 18 19 17 19 18 17 17 16 15 14 14 15 14 14 14 14 15
5 5 1 6 6 13 1 7 2 1 2 2 6 7 5 3 1 5 6 7 9 11 13 15 17 19 18 18 19 18 18 15 17 17 18 18 17 17 18 18 18 18 17 15 15 13 14 14 14
2 1 2 4 1 3 4 4 3 3 2 4 6 6 3 2 3 3 6 8 11 14 16 16 18 20 19 19 18 19 18 18 19 20 19 17 18 17 19 19 19 19 18 17 16 14 14 16 15
2 5 2 1 6 9 6 9 7 5 3 7 8 7 3 2 4 4 7 11 14 14 15 16 17 19 19 19 18 19 20 19 19 19 20 20 20 19 20 19 18 18 18 17 17 15 15 15 15
1 2 1 2 3 5 10 7 3 2 3 6 7 4 1 4 5 7 10 13 14 16 17 18 18 20 20 20 20 20 21 20 20 19 19 19 20 21 21 20 20 19 18 17 18 17 17 17 18
1 2 2 5 4 7 5 15 4 4 3 2 4 3 3 6 6 8 12 14 16 18 18 19 19 20 20 21 21 21 21 20 20 20 20 19 20 20 20 21 21 20 19 18 18 18 17 18 19
Wind_Direction
296 283 221 224 189 89 96 106 188 147 121 58 53 13 47 32 3 8 350 0 339 336 330 309 293 337 356 330 290 244 230 215 196 176 170 169 166 166 166 158 157 154 156 180 174 168 169 179 130
334 244 218 174 227 185 143 158 152 71 68 85 63 353 31 59 26 39 25 348 341 348 352 343 20 353 10 347 309 274 236 223 224 213 192 187 190 193 190 179 169 167 173 183 193 209 197 159 152
290 3 263 108 131 149 120 135 98 67 102 279 108 43 33 62 53 22 355 341 1 15 12 15 29 22 19 8 346 314 276 235 224 235 232 217 211 210 212 204 202 202 200 211 221 214 209 176 174
292 153 108 348 102 75 96 133 151 164 119 180 160 151 115 50 40 9 3 6 23 22 32 24 28 26 22 7 353 354 340 321 301 266 259 253 245 241 241 231 209 217 225 231 225 222 208 182 184
36 292 106 97 89 122 112 70 116 175 113 92 290 97 90 72 65 31 24 29 35 32 26 31 29 32 31 27 23 10 0 9 3 337 303 274 263 259 261 260 243 235 241 247 229 208 194 175 173
81 312 177 171 142 122 95 58 127 91 89 92 193 157 111 120 101 49 40 39 36 35 35 34 28 32 33 35 28 26 27 29 15 359 342 320 306 294 267 257 252 251 249 259 232 189 191 175 169
93 62 102 130 123 136 108 48 52 89 210 84 114 256 110 153 98 74 62 57 53 43 35 26 25 26 35 33 29 29 25 17 21 26 4 344 343 324 295 268 250 248 246 256 238 206 192 179 176
66 83 113 88 156 125 115 151 183 261 28 74 308 322 56 135 119 98 74 60 49 40 36 32 27 25 21 26 26 29 28 25 17 13 4 337 317 333 295 294 258 255 245 235 223 201 198 197 189
288 105 136 161 163 148 146 196 141 347 269 223 198 292 54 135 137 130 98 59 50 45 36 29 28 24 21 24 19 21 23 29 31 13 351 336 342 330 321 332 312 288 262 235 214 188 167 161 218
35 122 131 110 111 138 150 234 241 249 224 225 208 136 137 152 158 142 100 76 57 43 36 31 32 25 25 27 23 21 16 12 14 12 3 7 346 347 330 309 299 291 288 260 213 191 171 169 182
30 73 129 136 118 126 153 210 232 259 266 290 278 183 162 162 151 131 93 76 68 54 48 36 29 28 27 28 24 28 24 16 10 9 5 0 0 5 359 338 334 319 313 290 226 203 200 202 195
100 75 69 119 61 33 263 289 258 262 341 354 320 208 166 175 155 128 110 87 68 48 38 28 26 29 28 25 27 24 28 19 19 10 10 4 359 359 357 352 338 345 331 280 259 225 211 203 203
84 110 84 102 120 196 252 278 321 317 351 318 13 161 176 172 142 118 103 85 60 49 40 31 22 19 19 25 22 22 17 20 15 17 12 6 360 356 349 348 349 342 337 318 265 140 37 218 205
89 103 112 82 31 47 336 326 310 32 345 4 101 146 144 148 139 125 105 82 64 52 39 30 30 24 20 24 20 25 17 9 12 12 10 8 1 353 348 345 343 348 347 66 72 76 97 46 348
115 119 149 48 350 81 313 141 83 12 8 39 74 86 102 117 132 111 99 87 71 56 40 32 21 20 21 20 18 22 19 18 12 6 6 3 3 354 344 339 342 342 335 44 232 280 207 147 186
100 119 328 70 4 26 319 79 102 8 355 358 32 98 113 111 112 103 94 82 67 57 43 34 28 23 21 17 19 20 21 23 19 12 5 359 355 354 347 342 339 336 325 318 266 281 247 216 208
38 26 348 337 49 339 17 321 40 4 357 350 313 123 126 114 93 83 75 68 55 43 37 37 29 21 16 14 13 12 16 21 18 14 10 3 357 350 346 341 337 332 323 315 307 279 238 240 227
349 342 314 312 356 345 325 314 340 4 8 24 78 118 106 87 79 80 75 63 53 49 42 38 34 25 12 6 6 7 5 10 12 8 7 359 358 356 345 338 336 334 322 312 299 304 275 259 252
343 311 303 321 26 334 312 328 17 9 32 57 87 100 97 99 98 86 72 65 65 58 52 40 31 25 13 3 1 358 355 354 354 357 352 356 350 350 352 344 333 331 324 318 305 291 285 275 241
273 302 336 307 346 328 327 333 54 36 45 64 108 116 120 121 114 86 60 47 55 53 50 35 26 17 16 359 358 348 336 341 335 345 342 346 342 342 338 343 338 326 320 315 315 308 284 268 236
74 357 332 303 317 320 318 166 149 70 78 86 90 112 123 122 104 75 53 54 59 56 45 43 18 5 8 4 352 347 343 334 333 341 336 333 327 329 331 330 328 331 316 305 305 307 303 282 246
338 27 314 305 317 305 343 305 139 121 128 100 126 142 138 130 118 90 47 38 35 38 40 21 356 347 349 350 351 347 336 330 327 321 318 321 322 320 319 319 320 319 315 305 301 296 295 293 268
346 333 302 299 287 310 196 281 136 199 197 194 179 169 164 149 131 71 61 48 42 17 7 358 353 342 338 337 337 334 324 318 315 316 318 317 314 312 311 313 314 311 311 307 306 302 291 287 277
320 251 164 147 308 267 39 351 251 164 138 191 193 192 180 171 90 72 64 22 356 4 351 343 342 338 332 329 325 323 318 317 313 313 314 313 313 311 307 309 306 303 300 304 301 293 284 290 287
330 298 333 294 297 305 130 292 291 101 280 273 218 195 182 150 125 2 355 358 352 355 343 334 330 328 328 323 321 321 316 314 310 313 312 312 309 308 306 308 303 297 295 297 295 288 285 279 277
11 353 26 304 301 303 177 233 215 28 347 328 199 173 163 165 19 349 358 5 354 340 334 330 329 325 326 324 320 317 316 311 309 306 307 303 300 299 301 300 300 297 293 291 292 289 289 281 269
18 22 358 281 315 274 253 251 180 147 140 146 162 180 199 137 11 19 355 350 342 335 332 330 326 322 323 322 318 316 314 312 307 305 303 298 298 298 297 297 297 294 290 288 291 284 282 285 276
46 129 285 266 313 302 243 283 264 180 217 209 205 215 207 328 351 342 341 339 336 330 326 325 323 319 319 319 317 315 312 310 306 302 301 301 299 299 298 296 294 292 288 285 288 282 284 280 278
186 185 145 294 246 276 302 288 117 264 286 240 213 200 281 333 330 332 333 332 329 328 328 325 324 321 320 320 317 313 311 309 306 302 300 300 301 299 299 298 295 290 284 283 284 278 281 280 278
279 243 235 293 261 247 282 282 113 127 104 138 190 221 310 335 333 327 326 328 328 327 328 325 324 320 319 316 314 312 309 308 306 303 303 301 298 296 294 294 292 290 286 284 279 275 272 278 276